Regional Weather Roundup
Issued by NWS

Home | Current Version | Previous Version | Graphics & Text | Print | Product List | Glossary On
Versions: 1 2 3 4 5 6 7 8 9 10 11 12 13 14 15 16 17 18 19 20 21 22 23 24 25 26 27 28 29 30 31 32 33 34 35 36 37 38 39 40 41 42 43 44 45 46 47 48 49 50
000
ASUS45 KABQ 250910
RWRNM
NEW MEXICO REGIONAL WEATHER ROUNDUP
NATIONAL WEATHER SERVICE ALBUQUERQUE NM
300 AM MDT MON MAY 25 2015

NOTE: "FAIR" MEANS FEW OR NO CLOUDS BELOW 12,000 FEET AGL WITH NO
       SIGNIFICANT WEATHER OR OBSTRUCTIONS TO VISION.

      THIS PRODUCT IS RELEASED AS TWO VERSIONS.  ONE VERSION NEAR
      THE TOP OF THE HOUR CONTAINING PRELIMINARY DATA FROM ALBUQUERQUE
      AND OTHER STATIONS.  A FINAL VERSION WITH ADDITIONAL DATA IS
      ISSUED ABOUT 10 MINUTES AFTER THE HOUR.

NMZ501-503-504-510>518-251000-
NORTHWEST PLATEAU/NORTHCENTRAL MOUNTAINS

CITY           SKY/WX    TMP DP  RH WIND       PRES   REMARKS
FARMINGTON     MOCLDY    46  42  86 E6        29.96S
LOS ALAMOS     PTCLDY    43  38  82 CALM      30.04S
SANTA FE       PTCLDY    46  39  76 CALM      30.00F
TAOS           CLOUDY    43  30  61 CALM      30.03R
ANGEL FIRE     LGT RAIN  38  35  87 W8        30.06R WCI  33

$$
NMZ402-403-502-505>509-251000-
WESTCENTRAL MOUNTAINS/SOUTHWEST MOUNTAINS

CITY           SKY/WX    TMP DP  RH WIND       PRES   REMARKS
GALLUP         PTCLDY    44  38  79 CALM      30.04S
GRANTS         CLEAR     41  36  83 CALM      30.05R
SILVER CITY      N/A     48  28  46 NW12      30.02S

$$
NMZ407-409-411-412-251000-
SOUTHERN DESERTS

CITY           SKY/WX    TMP DP  RH WIND       PRES   REMARKS
LORDSBURG      FAIR      50  28  43 CALM      29.98S
DEMING         CLEAR     57  32  38 W10       29.96S
LAS CRUCES     CLEAR     54  31  41 CALM      29.97R
HOLLOMAN AFB   PTCLDY    55  37  51 NE8       29.91S
ALAMOGORDO     PTCLDY    57  34  41 NE7       29.94R
T OR C         CLEAR     57  36  45 NW13      29.95F

$$
NMZ519>523-251000-
CENTRAL VALLEYS/CENTRAL HIGHLANDS

CITY           SKY/WX    TMP DP  RH WIND       PRES   REMARKS
ALBUQUERQUE    MOCLDY    52  47  83 CALM      29.98F
DOUBLE EAGLE   PTCLDY    47  44  88 W5        30.00S
MORIARTY ARPT  FAIR      48  40  72 NW6       30.01F
CLINES CORNERS CLOUDY    45  38  76 W13       30.00F
BELEN          FAIR      49  43  78 W6        29.99R
SOCORRO        FAIR      53  40  60 NE3       29.97S

$$
NMZ524>526-539-540-251000-
SOUTHCENTRAL MOUNTAINS

CITY           SKY/WX    TMP DP  RH WIND       PRES   REMARKS
RUIDOSO        PTCLDY    46  32  57 NW5       30.04S

$$
NMZ527>531-251000-
NORTHEAST HIGHLANDS/NORTHEAST PLAINS

CITY           SKY/WX    TMP DP  RH WIND       PRES   REMARKS
LAS VEGAS      MOCLDY    45  36  70 SW12      29.98F
RATON          MOCLDY    40  35  83 N5        29.91F
CLAYTON        CLEAR     48  40  73 W7        29.86R

$$
NMZ532>537-251000-
EASTCENTRAL PLAINS

CITY           SKY/WX    TMP DP  RH WIND       PRES   REMARKS
TUCUMCARI      PTCLDY    52  45  77 W6        29.85R
CANNON AFB     CLEAR     55  44  65 W9        29.89R
CLOVIS AIRPORT CLEAR     52  45  76 SW7       29.89R

$$
NMZ028-029-538-251000-
SOUTHEAST PLAINS

CITY           SKY/WX    TMP DP  RH WIND       PRES   REMARKS
ROSWELL        CLOUDY    64  35  34 NW9       29.87R
ARTESIA        CLOUDY    66  30  26 SE6G15    29.88R
CARLSBAD       CLOUDY    66  33  29 NW10      29.84S
HOBBS          MOCLDY    57  46  67 S7        29.88S


$$


USA.gov is the U.S. government's official web portal to all federal, state and local government web resources and services.